Simultaneous Nadir Overpasses (SNOs) Predictions

Prediction of SNOs between FY3D and NOAA-19 Satellite Orbit:

Table of predicted SNOs for the next 14.0 days since TLE Epoch: 1/2/2021
Index Date (FY3D) Time (FY3D) Lat,Lon (FY3D) SZA (FY3D ) Date (NOAA-19) Time (NOAA-19) Lat,Lon (NOAA-19) SZA (NOAA-19 ) Distance(km) Time Diff (sec)
1 01/05/2021 23:57:42 78.89, 152.55 102.68 01/05/2021 23:56:34 78.88, 152.67 102.69 2.75 68
2 01/06/2021 00:48:26 -78.90, -40.20 77.31 01/06/2021 00:47:31 -78.87, -40.14 77.33 3.61 55
3 01/06/2021 01:39:11 78.89, 127.18 102.67 01/06/2021 01:38:34 78.90, 127.28 102.68 2.25 37
4 01/06/2021 02:29:55 -78.90, -65.57 77.32 01/06/2021 02:29:31 -78.89, -65.53 77.33 1.95 24
5 01/06/2021 03:20:40 78.89, 101.81 102.66 01/06/2021 03:20:34 78.91, 101.90 102.68 2.90 6
6 01/06/2021 04:11:24 -78.90, -90.94 77.33 01/06/2021 04:11:31 -78.90, -90.92 77.34 0.54 7
7 01/06/2021 05:02:09 78.89, 76.44 102.66 01/06/2021 05:02:35 78.90, 76.26 102.66 3.83 26
8 01/06/2021 05:52:53 -78.90,-116.31 77.34 01/06/2021 05:53:31 -78.92,-116.30 77.34 1.56 38
9 01/06/2021 06:43:39 78.93, 50.83 102.70 01/06/2021 06:44:35 78.91, 50.88 102.66 2.44 56
10 01/06/2021 07:34:22 -78.90,-141.68 77.35 01/06/2021 07:35:31 -78.93,-141.69 77.35 3.19 69



Historial Predications of SNOs between FY3D and NOAA-19
